Location: Unspecified
(0.0000°N, 0.0000°E)
Time: 11:04:26
(UTC+00:00)

Vanguard 2 - All Passes

Search period start: 26 September 2017 00:00
Search period end: 06 October 2017 00:00
Orbit: 554 x 2939 km, 32.9° (Epoch: 26 September)

Date Brightness Start Highest point End Pass type
(mag) Time Alt. Az. Time Alt. Az. Time Alt. Az.
26 Sep - 01:07:22 10° WNW 01:22:07 67° SW 01:40:02 10° SE visible
26 Sep - 03:22:26 10° W 03:36:39 30° SSW 03:50:20 10° SSE visible
26 Sep - 05:46:31 10° SW 05:53:02 13° SSW 05:58:52 10° S daylight
26 Sep - 08:08:24 10° S 08:09:14 10° S 08:10:02 10° S daylight
26 Sep - 10:15:58 10° SSW 10:22:06 22° SSE 10:26:33 10° ESE daylight
26 Sep - 12:25:43 10° WSW 12:31:40 73° NW 12:35:51 10° NE daylight
26 Sep - 21:09:29 10° N 21:16:48 22° NE 21:26:45 10° E visible
26 Sep - 23:15:50 10° NW 23:27:52 70° NE 23:45:19 10° ESE visible
27 Sep - 01:26:13 10° WNW 01:40:50 53° SSW 01:58:08 10° SE visible
27 Sep - 03:43:09 10° WSW 03:56:01 24° SSW 04:08:12 10° SSE visible
27 Sep - 06:08:09 10° SSW 06:13:04 12° S 06:17:30 10° S daylight
27 Sep - 08:24:09 10° SSW 08:28:45 13° S 08:32:38 10° SE daylight
27 Sep - 10:33:31 10° SW 10:40:53 32° SSE 10:45:44 10° E daylight
27 Sep - 12:44:26 10° WSW 12:49:43 37° NW 12:53:39 10° NNE daylight
27 Sep - 21:26:42 10° NNW 21:35:08 31° NE 21:47:24 10° E visible
27 Sep - 23:33:55 10° NW 23:46:13 88° NE 00:04:04 10° SE visible
28 Sep - 01:45:28 10° W 01:59:44 42° SSW 02:16:08 10° SE visible
28 Sep - 04:04:24 10° WSW 04:15:42 19° SSW 04:26:12 10° SSE visible
28 Sep - 06:28:22 10° SSW 06:33:06 12° S 06:37:20 10° SSE daylight
28 Sep - 08:41:19 10° SSW 08:48:06 17° SSE 08:53:14 10° SE daylight
28 Sep - 10:51:26 10° SW 10:59:27 51° SSE 11:04:27 10° ENE daylight
28 Sep - 13:03:47 10° W 13:07:44 20° NW 13:10:56 10° N daylight
28 Sep - 21:44:11 10° NNW 21:53:20 42° NE 22:07:22 10° ESE visible
28 Sep - 23:52:14 10° WNW 00:04:42 75° SW 00:22:32 10° SE visible
29 Sep - 02:05:09 10° W 02:18:51 34° SSW 02:34:05 10° SSE visible
29 Sep - 04:25:57 10° SW 04:35:38 16° SSW 04:44:31 10° SSE visible
29 Sep - 06:47:08 10° SSW 06:53:03 13° S 06:58:07 10° SSE daylight
29 Sep - 08:58:48 10° SSW 09:07:13 24° SSE 09:13:04 10° ESE daylight
29 Sep - 11:09:38 10° SW 11:17:47 84° SE 11:22:47 10° ENE daylight
29 Sep - 13:24:47 10° NW 13:25:48 11° NW 13:26:45 10° NNW daylight
29 Sep - 19:57:34 10° N 20:01:30 14° NE 20:06:14 10° ENE visible
29 Sep - 22:01:52 10° NW 22:11:29 57° NE 22:26:46 10° ESE night (unlit)
30 Sep - 00:10:50 10° WNW 00:23:21 59° SSW 00:40:45 10° SE visible
30 Sep - 02:25:20 10° WSW 02:38:13 27° SSW 02:52:04 10° SSE visible
30 Sep - 04:47:21 10° SW 04:55:45 15° S 05:03:24 10° SSE visible
30 Sep - 07:05:13 10° SSW 07:12:48 16° S 07:18:55 10° SE daylight
30 Sep - 09:16:31 10° SW 09:26:09 33° SSE 09:32:19 10° E daylight
30 Sep - 11:28:13 10° WSW 11:35:54 58° NW 11:40:46 10° NE daylight
30 Sep - 20:13:58 10° N 20:19:49 21° NE 20:27:50 10° E visible
30 Sep - 22:19:46 10° NW 22:29:41 76° NE 22:45:45 10° ESE night (unlit)
01 Oct - 00:29:46 10° W 00:42:12 46° SSW 00:58:51 10° SE visible
01 Oct - 02:46:01 10° WSW 02:57:52 22° SSW 03:10:11 10° SSE visible
01 Oct - 05:07:58 10° SSW 05:15:58 14° S 05:23:05 10° SSE visible
01 Oct - 07:23:04 10° SSW 07:32:21 20° SSE 07:39:18 10° ESE daylight
01 Oct - 09:34:27 10° SW 09:44:53 48° SSE 09:51:09 10° ENE daylight
01 Oct - 11:47:15 10° WSW 11:53:53 34° NW 11:58:24 10° NNE daylight
01 Oct - 20:31:04 10° NNW 20:37:56 30° NE 20:48:17 10° E visible
01 Oct - 22:37:54 10° WNW 22:48:02 83° SW 23:04:23 10° SE night (unlit)
02 Oct - 00:49:05 10° W 01:01:16 37° SSW 01:16:53 10° SE visible
02 Oct - 03:07:05 10° SW 03:17:47 19° SSW 03:28:35 10° SSE visible
02 Oct - 05:27:33 10° SSW 05:36:06 15° S 05:43:30 10° SE visible
02 Oct - 07:40:52 10° SSW 07:51:39 26° SSE 07:59:12 10° ESE daylight
02 Oct - 09:52:38 10° SW 10:03:23 71° SSE 10:09:37 10° ENE daylight
02 Oct - 12:06:55 10° W 12:11:50 20° NW 12:15:34 10° N daylight
02 Oct - 20:48:31 10° NNW 20:55:58 44° NE 21:08:01 10° ESE visible
02 Oct - 22:56:17 10° WNW 23:06:33 65° SSW 23:22:45 10° SE visible
03 Oct - 01:08:51 10° WSW 01:20:33 29° SSW 01:34:54 10° SSE visible
03 Oct - 03:28:12 10° SW 03:37:56 17° S 03:47:29 10° SSE visible
03 Oct - 05:46:18 10° SSW 05:56:04 18° S 06:04:10 10° SE daylight
03 Oct - 07:58:44 10° SW 08:10:45 34° SSE 08:18:35 10° E daylight
03 Oct - 10:11:06 10° WSW 10:21:39 79° NW 10:27:46 10° NE daylight
03 Oct - 12:28:06 10° WNW 12:29:52 11° NW 12:31:28 10° NNW daylight
03 Oct - 19:02:52 10° NNE 19:05:04 11° NE 19:07:33 10° ENE visible
03 Oct - 21:06:14 10° NW 21:14:01 62° NE 21:27:15 10° ESE visible
03 Oct - 23:14:58 10° WNW 23:25:17 50° SSW 23:40:56 10° SE visible
04 Oct - 01:29:05 10° WSW 01:40:07 24° SSW 01:53:00 10° SSE visible
04 Oct - 03:48:54 10° SSW 03:58:13 16° S 04:07:08 10° SSE visible
04 Oct - 06:04:33 10° SSW 06:15:49 21° SSE 06:24:39 10° ESE daylight
04 Oct - 08:16:43 10° SW 08:29:38 46° SSE 08:37:34 10° E daylight
04 Oct - 10:29:56 10° WSW 10:39:43 51° NW 10:45:37 10° NE daylight
04 Oct - 19:18:40 10° N 19:23:13 19° NE 19:29:20 10° E visible
04 Oct - 21:24:10 10° NW 21:32:12 85° NE 21:46:03 10° SE visible
04 Oct - 23:34:01 10° W 23:44:14 38° SSW 23:58:59 10° SE visible
05 Oct - 01:49:43 10° SW 01:59:56 20° SSW 02:11:22 10° SSE visible
05 Oct - 04:08:47 10° SSW 04:18:30 16° S 04:27:31 10° SE visible
05 Oct - 06:22:36 10° SSW 06:35:18 27° SSE 06:44:42 10° ESE daylight
05 Oct - 08:34:52 10° SW 08:48:17 63° SSE 08:56:10 10° ENE daylight
05 Oct - 10:49:14 10° WSW 10:57:41 33° NW 11:03:10 10° NNE daylight
05 Oct - 19:35:42 10° NNW 19:41:13 30° NE 19:49:33 10° E visible
05 Oct - 21:42:23 10° WNW 21:50:34 72° SSW 22:04:32 10° SE visible
